星链-31983 (STARLINK-31983)

导读

STARLINK-31983是美国太空探索技术公司SpaceX星链星座的卫星,于2024年8月20日由美国发射升空。星链计划旨在构建全球卫星互联网,为全球提供高速宽带服务,该卫星加入星座后进一步扩充了星链的卫星组网规模,助力该系统服务能力的提升,推进卫星互联网覆盖范围与应用落地进程。

基本信息
目录编号:
60602
目录名称:
STARLINK-31983
国际标识:
2024-150V
轨道中心:
EARTH
卫星名称:
星链-31983 (STARLINK-31983)
卫星全名:
星链-31983 (STARLINK-31983)
卫星状态:
在轨 (已飞行753 天)
发射日期:
2024-08-20 UTC
国别 :
美国 (US)
星等 :
--
该卫星已列入 空间交会检测服务 Space Conjunction Data Service (SCDS) ,当前飞行风险评估等级: 无高风险
轨道信息
数据来源 国际轨道数据
星历时间: 2026-09-11T11:24:40+0800
22小时前
查看轨道信息
半长轴: 6840.859km
偏心率: 0.0001161
轨道倾角: 53.158°
近地点辐角 97.936°
升交点赤经 161.460°
平近点角 262.177°
近地点: 461.927km
远地点: 463.517km
周期: 93.848分钟
每日圈数: 15.343938
详细信息
卫星平台:
Starlink v2.0 mini
运营商:
太空探索技术公司
运营商所在国:
美国
制造商(研发单位):
太空探索技术公司
制造商所在国:
美国
使用方式:
暂无
卫星简介
星链(Starlink)计划是由太空探索技术公司(SpaceX)提出的一个巨型低轨卫星互联网星座项目,计划在2019年至2024年间在太空搭建由约1.2万颗卫星组成的“星链”网络,其中1584颗将部署在地球上空550千米处的近地轨道,并从2020年开始工作。该卫星仍在工作。
2D轨道图
3D轨道图
轨道高度分析图
轨道倾角分析图
轨道综合分析图
查看轨道综合分析图
与全量物体交会距离演化趋势
与全量物体交会风险概率演化趋势